Theta_e
297 298 299 300 299 300 299 298 298 298 299 298 297 298 295 296 295 294 294 295 295 296 298 300 301 304 305 304 305 306 308 312 313 315 316 318 320 322 323 324 325 325 326 328 331 333 335 336 337 338 339 340 341 342 343 344 346 348 350 351 351 351 351 351 351 352 352 353 354 353 353 353 352 352 352 353 353 353 352 352 352 351 350 349 348 347 346
296 298 299 300 298 298 297 299 299 299 299 299 299 299 298 297 298 298 297 297 297 299 300 302 304 305 305 304 308 313 310 311 312 313 314 316 319 321 323 324 325 326 327 328 330 333 334 335 337 338 339 340 341 341 342 344 346 348 350 351 351 351 351 351 352 352 353 353 353 354 353 353 352 352 352 352 352 352 352 352 352 351 350 350 349 348 346
294 297 299 299 298 298 297 297 298 299 299 300 300 300 299 298 298 297 295 296 297 300 301 304 305 304 305 308 310 312 310 312 314 313 314 316 318 321 324 325 326 327 327 328 330 332 334 335 337 338 339 341 341 342 343 344 345 348 350 350 351 351 351 352 353 353 353 353 353 353 353 353 353 352 352 352 351 351 351 352 351 351 350 349 349 348 347
291 296 296 297 297 298 297 297 297 297 297 297 299 298 298 296 296 297 294 293 295 299 300 301 302 301 303 304 306 306 309 314 317 314 314 316 317 320 322 323 324 326 327 327 329 331 334 336 337 338 339 341 341 342 343 343 345 348 349 350 350 351 352 353 353 353 353 353 353 353 353 353 353 353 352 351 351 350 350 350 351 351 350 349 349 348 348
288 294 297 296 297 295 293 295 298 299 299 299 300 300 302 301 301 297 295 296 299 301 303 301 302 302 302 301 302 303 306 311 316 317 316 316 318 319 321 324 326 326 327 328 330 332 334 336 337 339 341 341 341 342 343 344 346 346 348 349 350 350 352 352 353 353 353 353 352 352 353 353 353 353 352 351 350 350 349 350 350 350 350 350 349 349 348
289 293 295 296 291 286 290 300 302 301 299 298 297 297 298 300 301 301 302 303 304 302 301 301 301 302 301 302 303 309 310 311 315 320 321 321 318 321 322 324 326 327 328 329 331 332 334 337 339 340 342 342 343 344 344 345 345 345 347 348 349 350 351 352 353 353 353 353 352 352 353 353 353 352 351 351 351 351 350 350 349 349 349 349 349 348 348
288 292 293 290 285 289 299 302 302 303 302 300 300 299 299 300 300 300 300 301 302 302 302 303 303 304 313 318 322 324 324 317 314 319 321 322 323 322 322 324 325 326 327 329 330 332 334 337 339 340 341 343 343 344 344 344 344 345 346 347 348 349 350 352 353 353 353 353 352 352 352 353 352 352 351 351 351 351 350 349 349 349 349 349 349 349 349
291 290 288 283 284 295 301 304 304 304 302 301 302 302 307 309 305 300 300 300 302 302 302 304 311 319 321 325 327 328 332 330 323 318 315 315 322 324 325 325 325 327 329 330 331 333 337 338 340 341 341 343 343 343 344 344 344 345 345 346 347 348 349 351 352 353 353 353 352 352 352 352 352 351 351 351 351 351 351 350 350 350 350 350 349 349 349
286 288 288 289 296 296 299 302 302 300 298 299 301 296 301 310 315 304 302 303 308 308 306 311 316 317 320 321 323 329 333 332 333 331 331 331 322 321 321 325 328 328 331 331 332 335 337 338 339 341 343 343 343 343 343 344 344 344 344 344 345 347 348 350 352 353 353 353 352 352 352 351 351 351 351 351 351 352 350 350 349 349 349 350 350 350 349
292 287 285 287 287 287 293 302 310 313 312 306 305 304 303 311 315 315 307 308 310 309 311 314 313 312 315 313 317 325 333 334 333 333 332 334 335 337 337 333 328 329 333 332 334 334 334 336 338 340 342 343 343 343 343 344 344 343 343 343 345 346 347 349 351 352 353 353 353 352 352 351 351 352 352 352 352 352 350 349 349 349 350 350 350 350 349
292 290 286 286 286 288 299 305 310 312 314 313 310 303 299 309 314 317 313 312 313 313 313 312 309 308 306 310 315 322 331 333 333 331 331 332 334 336 336 337 338 337 330 334 334 336 334 334 336 339 340 342 343 343 344 344 344 343 343 344 345 345 347 349 350 352 353 354 353 353 352 352 352 352 352 352 352 352 351 351 350 350 350 349 350 350 350
292 290 288 287 290 292 304 308 311 314 315 314 306 294 294 308 318 319 318 317 316 315 311 311 308 308 312 314 318 327 331 332 332 330 330 330 332 334 336 337 338 336 334 333 336 336 336 338 339 341 342 342 343 344 344 345 344 343 344 345 346 347 347 348 350 352 354 354 354 353 353 353 353 353 353 352 352 352 351 351 350 350 349 349 349 349 350
295 297 290 291 293 305 309 310 313 315 316 307 296 291 299 312 319 322 321 322 321 321 320 319 319 321 318 323 326 330 330 330 330 331 331 331 332 332 334 336 339 337 337 334 334 335 336 340 344 342 343 342 342 343 345 345 344 345 346 347 347 347 347 348 350 352 353 354 354 354 354 354 354 353 353 352 352 352 351 351 351 350 349 349 349 349 349
295 294 292 291 293 303 311 313 314 317 308 296 292 298 309 324 324 326 326 325 325 326 325 326 325 326 329 330 329 328 328 328 328 329 330 331 332 333 335 336 335 337 336 336 337 339 340 340 343 347 345 343 342 342 343 344 346 348 349 348 348 347 347 348 349 351 352 354 354 354 355 354 353 352 353 353 353 352 352 351 350 349 349 347 348 345 343
299 297 293 290 285 299 312 313 313 316 305 302 311 320 325 326 325 325 324 325 324 327 325 326 325 326 327 327 327 327 327 327 327 328 329 329 329 329 330 331 334 336 335 335 335 337 340 341 342 343 347 344 344 343 343 344 347 349 349 348 347 347 347 347 349 350 352 352 353 355 354 354 353 352 352 352 352 352 351 350 349 348 346 345 342 338 336
292 294 291 290 303 308 314 313 304 310 312 316 321 323 322 323 323 323 323 323 324 325 325 324 325 325 324 325 326 326 326 327 328 329 330 330 331 331 332 332 332 336 334 335 335 335 336 337 339 340 341 344 345 344 345 348 348 348 348 349 348 348 347 347 348 349 351 352 353 354 354 353 353 352 351 352 351 352 351 349 348 345 342 341 339 336 334
300 297 301 310 310 313 318 315 312 313 315 318 321 323 322 321 321 322 322 321 322 324 324 323 322 321 324 324 326 325 325 326 326 327 328 329 329 330 330 330 332 333 334 333 333 333 335 337 338 340 340 339 339 344 347 347 346 348 349 350 348 348 347 347 347 349 350 351 352 353 354 354 352 352 351 351 350 350 349 348 346 343 339 339 338 335 333
312 314 314 315 316 315 316 315 314 313 313 315 317 319 317 317 318 319 320 319 320 320 320 318 317 318 321 324 325 326 326 326 326 328 328 329 330 331 331 332 332 332 334 335 334 334 336 337 338 339 339 338 337 340 341 346 349 349 349 348 348 348 348 347 347 348 349 350 352 353 354 354 353 353 352 350 349 347 347 346 344 341 337 337 336 334 332
299 293 313 311 311 315 316 314 314 315 314 314 314 314 315 317 317 317 317 316 316 317 317 317 317 319 322 323 323 324 325 326 327 328 328 329 329 329 329 332 333 333 334 335 335 335 335 337 338 338 336 338 338 339 340 341 346 349 349 349 348 348 348 348 348 348 348 350 351 353 354 354 354 353 352 351 348 344 345 344 341 339 337 336 334 333 332
300 302 309 312 315 316 317 314 312 312 313 315 315 313 313 313 314 315 315 316 315 317 316 316 315 315 316 317 317 318 320 322 325 326 328 329 330 330 331 331 331 330 331 331 332 334 334 336 336 335 335 336 337 338 339 341 343 342 347 348 349 349 349 349 348 349 349 352 352 353 353 354 352 351 349 349 346 344 344 343 341 338 337 336 334 333 332
307 311 312 314 315 315 314 313 313 315 314 314 314 313 312 312 311 312 312 313 314 315 314 315 315 314 314 316 317 318 319 321 323 325 327 329 330 332 332 331 330 329 329 327 327 330 333 334 335 334 334 336 337 336 339 340 340 339 338 337 340 342 347 350 350 349 351 351 352 353 352 352 350 349 348 346 345 345 346 346 344 341 339 337 336 336 333
299 300 304 311 302 303 310 312 314 315 316 316 312 311 310 309 309 310 311 311 313 313 314 315 315 314 314 315 317 318 320 321 323 324 325 326 328 329 333 333 332 331 332 331 330 328 329 333 334 335 335 336 337 339 339 340 339 338 337 335 334 335 336 340 343 346 348 348 348 349 347 337 324 316 309 306 323 342 331 325 330 325 326 337 336 335 333
298 309 313 313 310 310 311 314 315 316 317 316 314 311 310 310 311 310 310 310 311 312 313 315 315 314 314 314 316 317 318 320 322 323 323 323 325 326 329 330 332 333 333 334 333 331 328 330 332 334 335 336 336 338 338 338 339 337 335 335 335 333 334 336 337 339 337 336 337 337 336 335 335 328 318 311 298 304 317 320 313 307 308 312 317 324 331
312 315 316 316 312 308 311 314 315 316 317 317 315 316 315 313 312 312 310 310 310 311 313 314 315 314 314 313 314 314 315 317 319 320 322 324 325 326 328 329 330 332 333 334 333 332 330 329 331 333 334 336 336 337 336 335 335 334 333 332 330 330 331 332 333 334 336 334 333 332 332 334 333 328 323 317 312 300 300 308 308 306 306 307 310 313 316
309 316 317 315 313 314 315 314 315 316 318 318 315 315 315 315 315 314 311 311 311 312 312 313 314 315 313 313 313 312 312 313 316 318 320 323 324 324 326 328 330 331 333 335 335 334 333 333 332 332 332 334 335 334 334 335 335 333 333 332 330 328 328 331 332 333 332 331 330 330 329 329 330 331 328 325 319 312 307 299 299 301 302 304 306 307 308
317 317 316 315 315 314 314 313 313 315 316 316 315 314 316 320 317 315 314 314 314 314 313 314 314 315 315 313 313 312 312 313 316 316 314 317 320 322 323 326 328 331 332 334 335 335 334 334 334 333 333 335 337 337 337 334 333 332 331 331 329 328 328 329 327 327 327 327 327 326 327 327 327 327 328 326 322 318 317 318 317 307 300 297 299 303 304
317 318 315 311 311 311 312 310 308 313 315 317 314 314 314 314 317 316 315 316 316 317 317 316 315 315 314 314 314 314 313 313 315 315 315 316 317 317 321 324 325 327 329 330 332 335 335 334 333 333 333 334 335 336 335 335 334 333 333 332 332 334 334 332 330 329 329 328 328 328 327 326 325 325 325 326 326 326 325 325 323 319 315 311 301 299 308
315 317 314 308 306 308 309 311 312 313 314 314 314 314 315 316 315 314 313 314 314 316 317 317 317 315 313 313 311 310 312 313 314 315 317 317 319 319 319 321 323 323 324 326 328 330 330 329 330 331 332 334 335 336 337 335 334 334 335 335 335 334 334 333 331 331 330 329 329 329 328 326 327 327 328 328 327 326 324 324 321 315 312 308 306 303 298
314 314 314 313 312 311 313 313 312 311 311 312 314 314 315 314 313 313 313 313 313 315 314 315 317 317 315 314 313 311 311 312 313 314 316 318 320 320 320 318 318 320 321 323 324 325 326 326 328 329 331 335 337 336 338 338 335 334 334 333 333 332 332 333 333 332 330 330 329 328 326 325 326 327 327 327 326 326 324 322 319 315 310 308 310 311 309
313 314 314 313 314 313 312 311 311 312 311 311 312 312 313 313 311 312 313 313 314 313 314 315 315 315 316 315 315 313 313 312 312 313 315 317 319 319 318 317 316 316 317 319 320 323 323 323 325 327 328 332 336 335 335 335 336 335 334 334 333 333 334 333 331 331 330 328 326 326 327 328 328 327 327 326 326 325 323 320 316 313 311 315 318 317 312
312 313 313 313 313 313 312 311 312 313 313 312 312 312 312 313 312 311 312 313 314 313 313 314 315 315 315 314 314 314 314 313 313 313 314 316 317 318 318 318 315 315 316 317 319 322 324 323 324 326 329 331 332 333 333 333 333 334 334 333 332 327 326 327 329 330 329 329 328 328 327 327 327 327 326 325 324 322 320 318 316 315 316 318 318 318 313
311 311 311 311 311 311 311 311 311 312 312 313 313 311 312 312 311 312 313 313 313 312 313 314 314 314 314 314 315 314 313 312 312 313 315 316 317 318 319 318 321 323 319 321 322 323 324 324 323 325 330 330 331 331 332 331 331 331 332 336 332 332 328 327 330 329 330 331 329 328 328 326 326 326 326 325 323 321 319 318 316 317 318 318 318 315 311
308 307 307 308 310 310 309 310 311 311 312 312 313 314 315 316 316 315 314 315 315 315 314 314 315 315 314 314 314 314 314 312 312 313 314 316 317 318 319 322 319 320 322 323 323 323 324 325 326 325 330 331 330 330 331 330 329 329 330 332 332 333 334 328 328 331 333 330 329 328 328 327 327 326 325 325 323 321 320 319 318 318 318 319 317 313 310
307 307 308 309 309 308 308 310 312 312 313 314 315 315 316 317 317 316 316 317 317 316 315 315 316 316 316 314 314 314 314 314 315 315 315 316 318 320 321 322 321 320 321 323 324 325 326 327 327 325 328 331 331 330 330 330 328 328 328 329 330 329 329 329 330 332 331 330 330 332 330 328 327 326 326 325 323 321 321 320 319 318 318 317 314 312 307
314 313 314 314 315 315 314 312 312 312 313 313 314 315 315 316 317 318 319 316 315 316 317 318 317 317 316 315 315 316 317 316 317 318 319 320 320 320 322 323 323 323 324 324 325 325 327 328 328 327 328 330 331 332 331 330 329 328 328 328 328 328 329 331 330 330 330 330 330 329 328 327 326 329 328 324 323 322 321 320 320 319 318 315 313 311 308
314 312 313 313 314 315 314 314 315 315 314 314 315 316 316 316 317 316 316 316 317 318 317 317 317 318 316 316 316 316 316 316 317 317 318 319 320 321 322 322 323 323 324 324 326 328 329 331 337 334 332 330 331 330 333 331 330 329 329 328 327 328 328 328 327 328 328 328 328 328 328 329 329 327 327 325 324 323 322 321 320 320 318 315 313 311 309
315 313 313 314 314 314 314 314 315 315 315 315 315 315 315 316 316 317 318 317 317 316 315 316 316 316 315 315 317 317 317 316 317 317 317 318 319 320 321 321 323 323 324 323 325 329 329 331 335 335 330 328 330 330 335 338 329 329 329 328 327 327 325 324 324 324 324 325 325 326 328 328 327 327 327 325 324 322 322 321 321 319 318 316 313 312 310
313 314 314 314 314 313 313 314 316 316 316 316 317 317 318 315 316 316 316 316 316 316 316 316 315 315 317 317 317 317 317 317 317 317 317 318 318 318 319 320 321 323 322 322 326 329 329 332 333 329 326 327 328 330 334 339 337 329 328 328 327 325 324 322 322 322 322 322 324 323 324 324 324 324 324 323 323 323 322 321 321 319 317 316 314 312 311
312 313 313 314 314 314 314 314 313 313 316 315 315 315 318 317 317 316 315 315 316 318 317 315 316 315 315 315 315 316 317 317 318 318 318 318 319 318 317 319 320 323 324 325 325 326 330 331 329 326 325 325 327 331 336 337 333 326 325 325 326 325 323 322 321 321 321 322 321 321 321 322 322 322 321 322 322 322 323 321 320 319 316 314 313 312 312
313 313 313 314 313 313 314 314 315 314 315 315 314 313 315 316 316 316 315 315 316 317 315 315 315 314 314 314 315 315 316 318 318 318 318 318 318 317 317 318 320 321 324 326 321 323 329 332 328 324 325 325 326 326 331 332 330 325 323 323 323 323 322 321 321 321 322 322 323 323 321 321 322 323 322 321 320 321 321 320 318 317 316 315 314 313 314
311 311 311 310 310 311 310 310 310 312 312 313 313 314 314 314 314 314 314 314 315 316 315 314 314 314 314 314 314 314 315 316 316 316 318 318 317 316 316 316 319 321 321 321 321 323 326 328 328 324 323 325 326 331 325 328 322 321 321 322 322 322 320 319 320 320 320 322 322 321 322 321 321 322 321 321 320 321 321 320 318 317 316 315 314 314 314
309 309 309 308 308 308 309 309 310 310 310 311 313 312 312 313 313 312 312 313 313 313 314 317 321 316 314 314 314 314 313 313 313 313 314 315 315 315 314 315 319 321 326 323 322 321 320 321 323 328 324 324 325 332 331 324 320 320 320 321 321 322 321 322 321 319 320 320 319 319 320 321 321 320 320 320 320 320 320 319 318 316 316 315 314 315 315
308 307 308 308 308 308 308 309 308 308 309 309 310 310 310 310 309 309 310 309 309 309 309 309 312 313 312 310 310 309 310 312 313 314 315 316 317 318 316 316 319 322 326 323 321 318 319 320 321 322 328 327 326 329 326 319 320 320 321 322 323 322 321 321 320 318 317 316 316 317 318 317 317 316 317 318 319 318 317 317 316 316 316 315 314 314 314
308 307 307 307 307 308 308 308 308 308 307 308 309 309 309 309 309 309 309 309 308 309 307 307 307 308 309 309 309 308 308 309 310 312 314 315 317 319 321 320 320 323 326 321 320 320 319 320 322 325 326 327 327 325 319 317 317 317 319 319 318 319 319 318 318 317 317 317 316 314 315 316 315 315 316 317 317 317 317 317 316 316 316 315 315 314 313
307 307 307 307 307 308 307 307 307 307 307 308 309 308 308 308 308 309 309 308 309 309 309 307 307 307 307 308 308 308 308 309 309 310 311 313 313 314 320 323 321 320 321 322 318 319 320 321 322 326 325 323 323 322 313 314 316 318 317 317 317 317 319 319 319 319 318 316 316 317 318 317 317 317 317 316 317 316 316 317 316 317 316 315 314 314 313
304 304 306 311 307 306 307 307 308 308 308 308 307 309 309 308 308 308 308 308 308 308 307 308 308 307 307 307 308 308 308 308 308 309 310 311 311 312 316 318 316 318 319 318 315 315 317 324 323 322 322 322 322 315 313 314 314 311 312 313 315 319 318 318 318 317 316 316 317 317 318 319 317 317 316 316 318 317 316 316 315 316 316 316 315 314 313
302 303 303 303 304 306 307 308 309 308 307 306 305 306 308 308 308 307 308 308 307 307 307 307 307 307 308 308 307 306 305 305 306 307 308 309 312 313 314 315 316 316 314 312 313 313 315 317 320 320 320 321 320 313 313 313 312 311 311 310 310 310 312 313 315 316 316 316 316 320 320 318 317 315 314 315 312 312 312 312 312 312 312 313 312 314 313
302 302 302 303 303 304 304 304 304 303 304 305 305 307 307 307 307 307 307 306 306 305 305 305 306 306 307 307 307 308 306 305 302 303 306 306 307 308 309 309 310 312 311 311 313 316 318 318 318 318 318 319 314 312 312 312 313 312 311 310 310 310 309 309 309 309 309 310 310 310 310 313 311 310 310 310 308 309 309 309 309 309 310 311 312 312 311
302 303 303 303 303 303 303 303 303 304 303 305 306 307 309 308 308 307 306 304 303 303 302 302 302 302 304 309 308 306 309 309 306 303 305 305 305 306 307 311 312 311 308 304 304 307 315 315 315 315 315 315 310 310 309 309 310 311 309 308 309 308 308 308 308 309 309 309 309 309 309 308 308 308 308 307 307 308 309 309 308 308 308 308 308 308 308
302 302 301 301 300 300 301 301 301 301 302 304 304 306 308 308 307 306 306 305 304 305 301 301 300 301 301 302 303 304 306 308 307 306 306 306 305 304 306 307 308 310 309 304 304 305 312 315 314 315 312 308 308 308 307 307 307 308 307 307 307 306 307 306 306 306 306 307 306 307 307 308 308 310 310 308 308 307 307 309 307 309 309 308 307 307 306
300 300 300 302 301 301 300 300 301 302 301 302 302 305 306 306 306 308 306 304 302 302 300 301 301 301 300 300 301 303 304 305 308 310 305 304 305 308 308 306 305 306 305 303 301 301 304 307 308 310 308 307 306 306 306 306 306 306 306 305 305 305 305 305 304 304 304 305 304 303 304 304 305 305 305 306 307 307 307 308 308 307 307 306 305 306 305
300 300 300 300 299 299 300 300 301 302 302 303 303 303 303 304 304 304 305 308 302 300 300 299 299 301 302 301 302 301 303 305 306 304 308 307 304 301 305 306 301 302 299 299 298 299 301 305 311 311 310 305 304 304 307 307 305 305 306 306 305 304 305 305 305 303 303 303 302 302 302 302 302 301 302 302 302 302 302 302 302 302 303 302 302 302 302
Wind_Speed
14 12 14 15 10 14 12 14 14 14 13 12 18 18 8 13 13 17 7 8 7 8 8 7 8 9 10 9 7 10 11 7 6 6 8 10 12 13 14 14 13 13 14 14 15 16 16 16 16 16 15 15 14 14 14 15 15 17 17 17 17 17 17 18 18 18 16 14 14 14 15 14 15 14 14 14 13 12 12 12 11 13 12 12 12 12 11
16 15 13 13 12 9 7 14 16 16 16 18 18 16 12 17 12 9 11 11 16 11 10 11 13 11 11 5 2 2 3 7 8 7 7 9 10 11 14 15 15 15 17 16 14 15 15 16 17 16 15 15 16 16 16 16 16 16 15 17 17 17 18 19 17 15 15 15 15 15 15 15 15 14 13 13 12 13 13 13 12 11 12 12 12 13 12
13 14 12 10 11 13 12 8 11 16 18 19 19 15 14 11 13 8 5 8 12 8 7 10 11 10 1 1 2 7 6 6 7 9 11 12 13 13 14 15 18 18 18 15 13 14 16 17 18 18 17 17 16 16 15 15 17 16 16 17 17 18 20 19 17 16 15 16 15 16 16 15 13 14 14 12 12 13 12 12 13 12 12 13 13 12 13
10 7 7 13 12 12 13 14 12 14 17 17 15 14 8 9 12 9 6 7 9 8 8 6 6 5 2 6 7 7 6 5 6 9 11 12 13 12 13 10 6 5 7 9 11 13 15 15 15 14 14 13 13 15 16 17 17 16 17 17 18 19 19 16 16 17 16 16 16 17 15 16 15 14 13 12 13 13 13 14 13 12 13 14 13 13 12
6 11 10 15 15 7 10 18 22 18 13 11 9 10 13 18 17 14 14 15 9 13 7 6 8 10 10 6 7 7 5 4 4 7 9 12 13 11 10 9 12 14 15 15 17 16 13 14 15 17 17 15 16 17 17 18 15 14 17 18 18 18 17 16 17 17 16 16 17 16 16 16 13 12 13 14 14 14 15 15 12 13 15 13 13 13 12
9 18 15 11 5 7 16 16 11 13 15 12 12 10 10 10 14 13 13 15 14 9 3 7 10 13 10 7 4 3 3 5 4 6 6 6 7 9 10 10 12 14 12 11 13 14 15 15 17 16 16 18 18 18 18 14 15 16 17 17 17 18 16 16 17 16 16 17 17 17 15 14 13 14 14 16 16 15 13 12 13 15 14 15 14 13 13
7 9 9 7 5 11 11 2 9 13 11 11 14 12 13 13 13 5 1 6 8 6 8 9 3 0 3 5 5 4 4 2 3 5 4 3 1 5 5 9 11 9 9 9 8 7 10 13 13 11 12 14 14 13 12 13 15 16 17 18 18 17 17 17 16 16 17 17 17 16 15 14 15 16 17 16 16 14 13 15 15 15 15 14 13 13 14
4 4 2 3 6 5 8 3 3 2 8 10 10 7 5 4 5 9 9 7 7 5 5 5 9 11 6 5 6 5 6 5 4 4 4 3 3 3 3 3 5 9 14 15 14 15 14 13 12 13 16 16 14 15 14 16 16 17 18 18 18 16 16 16 17 17 18 17 16 14 15 15 17 18 17 17 17 15 13 13 13 12 11 13 14 14 13
5 4 5 7 11 16 8 2 3 2 4 7 13 12 7 2 2 7 8 9 2 5 7 11 9 8 4 6 6 6 8 8 7 6 5 7 5 2 2 3 6 5 4 5 6 7 12 15 15 15 15 13 12 11 11 13 13 14 14 15 15 15 16 16 16 16 16 17 16 15 16 17 18 18 18 17 15 13 14 14 14 14 14 13 12 13 14
8 6 5 4 3 4 3 5 13 12 16 11 10 9 5 3 2 5 5 8 9 9 11 10 8 4 9 5 3 6 8 8 9 7 5 6 5 7 7 6 5 3 3 6 4 3 4 7 12 12 10 10 11 11 13 13 14 14 15 17 17 17 17 17 16 16 16 15 15 16 16 19 19 17 16 14 14 14 15 15 15 14 13 11 12 13 14
3 5 5 3 3 4 2 13 16 19 15 16 6 9 10 3 2 2 8 10 11 17 15 10 6 6 6 4 4 4 6 7 7 7 8 6 6 6 6 7 9 6 4 3 4 5 5 6 5 3 6 7 7 10 10 11 13 14 16 17 16 17 17 17 16 15 15 16 16 17 18 18 17 17 16 16 13 12 13 13 14 12 11 12 12 11 12
7 5 4 5 3 3 11 18 17 19 18 11 1 12 10 3 1 3 4 7 10 8 7 8 5 8 11 8 4 2 5 6 5 6 8 10 12 11 7 6 5 4 5 3 2 3 6 7 6 10 7 7 10 12 12 11 12 15 16 17 17 16 13 10 10 11 13 15 17 17 18 17 15 16 13 11 12 14 13 12 12 11 12 11 12 11 11
6 5 3 3 4 1 8 18 22 21 11 2 9 13 6 3 4 4 4 5 4 5 8 4 7 2 1 5 1 4 5 4 7 8 6 5 5 8 11 12 11 7 6 7 6 5 2 0 4 6 8 11 12 12 10 10 15 17 18 16 14 13 12 12 12 14 14 15 17 17 16 15 14 13 12 13 13 13 13 12 11 11 12 11 11 10 10
6 4 3 5 4 0 14 21 21 15 2 7 7 4 2 6 7 6 6 10 6 10 11 9 9 6 6 6 5 6 8 8 6 6 8 10 11 10 9 10 13 12 10 8 5 5 5 7 1 7 7 8 7 7 8 12 15 14 12 12 13 12 12 14 15 15 15 15 16 14 13 12 12 14 13 13 13 14 11 11 13 13 11 10 10 9 7
2 1 2 4 3 3 18 25 15 10 7 5 9 10 3 3 6 8 6 9 5 13 13 10 10 10 8 7 7 8 8 9 10 12 12 12 10 10 12 13 12 10 9 10 9 8 6 7 7 2 6 9 9 8 11 15 15 13 10 6 5 6 8 11 13 15 15 17 15 13 13 14 14 14 13 13 12 12 12 12 12 12 12 10 9 8 7
5 1 2 4 3 8 12 11 7 13 10 12 10 6 1 2 2 5 9 6 6 9 15 13 11 10 10 8 7 8 8 8 8 9 10 10 11 11 9 5 6 9 6 7 8 8 8 8 7 8 3 4 7 8 13 14 11 7 6 7 8 10 12 13 13 13 14 16 16 15 16 16 15 15 13 13 12 12 12 12 11 11 9 10 10 10 9
3 5 5 1 5 5 7 9 10 13 16 12 10 8 5 3 3 1 8 8 6 8 12 11 10 10 8 9 8 8 8 8 8 8 8 9 9 9 10 10 11 8 8 8 7 8 8 9 8 7 7 4 4 9 9 3 4 6 9 10 11 13 14 15 15 16 16 15 16 16 15 16 16 15 15 15 13 12 12 12 12 11 10 10 11 10 10
0 3 2 0 1 4 7 10 11 14 16 14 11 9 5 5 4 3 7 6 6 5 6 13 7 7 7 10 10 10 9 8 6 5 5 7 7 9 8 9 9 7 7 7 9 9 8 8 7 6 6 6 5 6 8 8 5 7 8 9 10 13 13 13 15 15 14 14 14 15 15 14 15 15 15 15 13 11 11 11 11 11 11 10 10 10 10
4 1 3 1 1 2 6 10 14 14 14 12 10 7 6 6 6 9 9 8 8 7 9 12 11 9 7 10 9 8 8 8 7 5 5 4 4 5 6 7 6 5 5 6 7 8 9 10 7 5 4 3 2 4 5 6 6 6 8 11 12 12 13 13 13 13 14 12 12 12 13 12 12 12 12 13 13 14 13 13 12 12 12 11 10 10 10
4 2 2 2 2 4 3 5 11 13 16 15 11 7 7 8 9 11 10 9 10 9 12 9 12 10 8 10 8 9 8 8 7 7 7 6 4 3 2 3 3 2 2 2 2 3 4 6 6 6 5 5 5 5 6 6 7 4 6 9 12 13 15 13 12 13 13 17 16 12 13 13 12 11 11 13 14 15 16 16 16 15 13 13 13 12 11
2 3 3 2 2 8 6 9 11 11 11 12 12 10 10 11 13 13 13 12 9 8 6 6 10 11 7 7 8 9 7 9 9 9 8 8 8 7 7 7 6 5 4 4 4 4 4 4 4 3 3 3 3 3 3 5 7 8 7 4 4 4 5 8 10 12 13 14 15 16 15 14 12 13 17 16 15 14 13 13 17 17 15 14 13 12 12
4 3 2 2 4 2 2 6 7 12 11 9 9 8 11 11 11 9 10 10 8 6 5 3 7 10 7 5 8 10 9 9 9 9 8 8 9 10 8 6 7 7 7 6 5 5 4 5 6 6 6 6 6 6 4 1 2 4 6 6 2 1 2 1 3 5 7 9 9 10 12 13 13 8 9 7 6 13 10 6 2 11 18 15 14 12 11
4 3 3 3 5 8 3 2 4 10 5 5 7 9 9 10 10 9 8 8 9 8 7 5 5 7 8 6 8 11 9 8 7 8 9 9 8 8 8 8 8 8 8 9 7 6 5 5 6 7 7 7 7 7 6 6 6 6 6 5 6 6 2 3 7 7 7 7 8 11 13 15 15 14 11 11 19 17 15 20 15 11 13 17 20 18 16
3 3 3 4 3 5 5 3 2 9 4 2 8 9 9 11 11 10 10 9 8 6 6 7 7 6 8 6 9 10 9 8 8 8 7 8 7 7 8 8 8 7 7 7 7 6 4 3 4 5 5 6 5 4 5 5 6 6 5 5 4 3 3 5 3 5 8 9 10 11 11 12 14 15 15 16 15 18 17 17 19 17 15 16 19 19 20
3 2 2 3 7 7 6 4 4 5 4 7 7 8 10 11 11 10 10 9 9 8 7 8 9 9 8 8 8 9 8 6 6 6 6 7 10 9 9 10 10 9 8 7 6 6 6 5 6 5 6 5 4 4 4 4 5 5 5 6 7 7 8 6 4 4 5 10 11 11 11 9 10 14 16 17 19 15 15 19 18 16 13 13 15 18 19
1 2 6 6 7 6 4 4 4 4 3 8 9 6 7 10 11 10 10 9 9 10 10 9 9 9 8 7 7 6 8 7 5 6 8 9 9 10 11 10 9 9 9 9 9 9 9 9 8 7 7 7 6 5 3 4 4 4 5 6 7 6 5 4 6 6 9 9 1 6 9 9 7 7 10 13 18 23 23 17 13 14 16 14 12 15 15
4 5 8 9 7 5 4 4 1 3 5 6 6 5 4 8 11 10 10 10 10 10 9 8 6 6 6 7 6 6 6 4 7 9 7 8 9 7 6 6 8 10 11 10 9 10 11 9 8 8 8 8 7 5 4 3 3 3 4 4 4 6 7 4 3 5 6 5 7 7 7 8 9 9 10 10 11 13 13 16 17 14 9 6 10 12 9
5 9 5 8 9 5 4 4 4 5 6 5 5 7 5 7 13 14 14 13 12 10 9 8 8 8 9 8 7 7 8 9 9 7 8 7 6 5 6 7 8 9 10 10 9 9 9 9 9 9 9 8 7 6 5 4 3 3 3 4 5 5 4 5 4 4 4 2 3 1 5 9 9 9 10 11 11 11 11 10 12 13 8 7 6 9 15
6 7 6 8 9 8 6 5 8 8 7 4 5 7 9 9 9 12 11 9 7 7 9 9 7 6 7 7 6 7 7 7 8 9 7 6 6 6 4 5 6 8 10 9 9 9 9 9 9 9 8 8 7 6 5 4 3 3 4 4 6 6 6 5 4 4 6 4 5 5 6 8 8 9 8 10 11 10 9 9 11 10 11 9 9 10 11
8 10 10 9 9 9 10 10 8 7 7 6 8 8 9 9 9 9 10 9 8 8 6 6 7 8 6 7 7 6 7 6 5 4 6 6 6 6 5 2 5 10 11 12 10 9 9 8 8 8 7 6 4 5 5 5 5 4 4 4 4 5 7 9 7 6 6 6 5 5 5 8 9 10 10 10 9 8 8 8 9 10 11 9 8 10 10
11 12 12 11 11 10 11 10 8 8 7 6 6 6 7 9 9 8 9 8 7 5 5 5 5 5 7 6 4 5 4 5 5 5 6 6 7 7 7 8 10 8 8 6 7 7 7 7 6 6 6 6 3 4 5 5 5 4 4 5 4 8 11 11 8 8 6 4 3 5 7 8 8 10 10 9 7 7 7 8 8 8 8 8 8 9 10
15 13 13 10 10 11 10 8 9 9 8 7 9 9 7 8 8 6 4 4 3 2 4 6 7 7 5 5 5 5 5 5 6 7 7 7 8 8 7 7 6 5 5 6 6 7 7 8 9 8 5 4 5 6 6 6 6 5 5 5 5 4 7 10 8 8 6 5 5 7 7 8 7 8 8 7 7 7 8 9 9 8 7 8 7 7 7
15 16 12 11 11 11 10 7 9 9 9 9 6 5 6 7 6 5 4 3 4 5 5 5 5 5 5 5 6 6 5 5 5 7 8 8 8 8 7 7 6 6 6 6 5 5 6 6 6 7 8 7 6 6 7 7 7 6 6 6 5 5 5 6 7 7 7 6 6 6 6 6 6 6 6 6 6 6 6 7 7 7 6 6 6 6 8
10 10 10 9 10 11 10 8 6 8 7 6 6 7 8 8 7 6 5 5 6 7 7 6 6 5 5 5 4 5 5 6 8 8 8 7 8 8 7 7 6 6 6 7 8 7 6 5 4 5 6 7 7 6 6 7 7 6 5 5 5 5 5 5 6 6 6 6 6 6 6 7 7 7 7 7 7 7 7 7 6 6 6 5 5 5 6
8 9 9 9 8 7 6 7 8 8 8 8 7 6 6 6 6 6 6 7 7 5 5 7 6 6 6 5 6 6 7 7 6 7 7 7 7 7 7 8 8 8 9 9 9 8 7 5 3 3 5 6 7 6 5 5 6 6 4 5 4 5 4 4 5 5 6 6 6 6 6 6 5 5 6 7 7 7 7 7 6 6 6 6 6 5 6
9 8 8 7 6 6 7 7 7 8 8 7 6 6 6 6 7 7 7 6 5 6 7 7 6 6 6 6 7 7 7 6 6 7 7 7 7 7 8 9 9 9 9 9 10 8 8 7 8 8 4 4 5 5 4 2 3 3 4 5 7 6 5 4 3 4 5 5 6 7 7 7 7 6 6 5 5 6 6 7 6 6 6 6 7 7 6
7 8 7 7 7 7 6 7 8 8 8 7 7 8 9 7 6 5 6 6 7 6 5 5 7 7 5 4 5 6 6 5 6 5 6 6 6 8 9 9 10 9 8 9 9 8 7 7 11 12 7 5 5 3 1 4 1 2 5 6 6 5 5 5 4 5 4 3 2 3 6 6 6 6 6 6 6 5 5 6 6 6 7 7 7 7 6
9 8 9 9 9 10 12 11 9 8 10 11 8 7 6 8 7 6 7 7 6 6 5 6 5 4 5 7 8 8 7 6 6 6 6 6 6 8 9 9 9 8 9 9 7 7 7 9 13 8 7 7 7 6 4 3 4 3 4 4 4 4 6 6 6 5 4 3 3 2 2 3 4 4 5 5 5 6 6 5 6 8 7 7 7 8 8
10 11 10 11 12 10 10 11 9 5 9 9 7 4 4 4 4 6 8 8 7 5 6 7 6 8 7 8 7 8 8 7 6 6 6 6 6 8 8 7 6 7 6 7 8 8 8 10 8 8 7 7 7 8 9 9 8 5 5 5 6 5 5 5 5 4 4 4 4 4 5 6 4 4 4 4 4 4 4 6 7 7 8 8 8 8 8
9 9 10 9 9 6 6 6 6 8 8 7 7 7 3 3 7 7 6 6 4 4 6 6 8 8 7 6 6 6 6 6 7 6 6 6 6 7 8 10 9 7 7 10 8 7 10 14 9 6 6 5 6 5 4 6 6 5 5 5 5 5 5 5 5 4 3 3 4 5 3 3 5 5 6 6 7 7 6 4 3 6 6 7 7 7 7
7 7 7 9 9 8 8 9 8 7 5 4 4 5 6 7 5 6 7 6 5 5 6 6 6 6 5 5 6 6 6 7 7 7 7 8 10 9 10 10 7 6 7 7 8 9 11 10 8 7 7 7 6 6 5 8 6 5 5 5 5 4 3 4 3 4 3 3 2 3 5 4 3 4 5 5 6 7 7 7 5 5 7 7 7 7 7
11 10 11 11 11 11 11 11 11 10 9 8 7 7 7 7 7 6 5 6 6 7 7 7 10 8 6 7 7 8 8 8 7 8 9 10 8 8 10 8 7 6 12 12 11 11 9 9 9 8 8 7 6 9 8 6 6 6 6 6 5 5 4 3 4 5 4 3 1 1 1 1 4 3 3 5 5 5 6 5 5 6 5 6 7 7 8
12 12 11 11 11 12 11 11 10 10 10 9 9 8 7 7 9 9 9 8 8 8 9 8 10 11 9 9 10 10 9 8 9 8 9 10 9 8 8 6 6 9 16 10 10 9 10 8 9 9 14 11 9 14 11 6 5 5 5 5 5 5 5 4 5 4 3 2 2 2 2 2 4 0 3 3 3 4 4 5 6 6 6 6 6 6 6
12 12 11 11 11 10 11 11 11 12 11 10 9 9 10 8 7 8 9 9 9 9 9 9 9 9 9 9 10 9 9 9 8 7 8 9 10 10 8 8 7 12 20 11 10 10 10 10 10 15 20 20 19 16 8 7 6 5 4 5 5 5 5 5 6 6 5 4 3 4 2 2 2 1 1 2 4 6 6 6 5 5 5 5 5 6 5
11 10 11 12 11 11 11 10 11 10 9 9 10 10 9 9 9 9 10 10 10 10 9 9 9 8 8 9 9 8 7 8 8 8 9 9 9 9 9 10 11 10 14 16 10 10 10 11 16 22 18 20 19 18 9 8 7 7 6 6 5 3 3 5 6 6 5 5 5 5 4 4 4 5 6 7 6 3 2 5 7 7 7 6 6 6 6
12 11 12 13 12 9 8 8 7 9 11 11 11 10 9 9 10 9 9 10 10 9 9 10 10 9 8 7 7 8 10 10 11 10 8 7 8 7 9 12 10 12 19 19 11 11 10 21 23 20 20 20 18 12 9 9 9 8 8 7 6 6 6 5 5 3 3 3 4 4 4 2 2 4 4 6 8 6 3 2 3 5 6 6 6 6 6
11 12 11 10 10 10 10 10 11 12 11 10 9 7 7 9 9 9 9 10 10 10 10 11 10 10 9 9 8 7 8 9 10 10 9 8 9 10 13 18 17 19 16 12 11 11 12 14 17 21 20 21 19 11 10 10 10 10 10 10 9 9 8 7 6 5 4 3 1 1 4 2 2 0 2 3 4 5 6 6 5 4 5 5 5 6 6
12 12 11 11 11 11 12 12 12 11 9 8 5 6 6 7 8 8 9 9 10 10 11 10 10 10 10 10 10 9 7 7 10 9 8 8 8 8 9 8 12 17 17 15 16 16 23 22 23 22 22 20 13 11 11 11 10 10 11 11 10 10 10 9 9 9 8 9 8 7 3 1 1 1 1 2 4 5 5 5 5 5 5 6 7 7 7
10 11 11 11 12 12 11 11 11 10 8 7 8 7 5 7 8 8 8 9 10 10 10 10 10 10 9 9 9 8 8 8 8 6 6 7 8 7 7 10 17 17 11 9 10 9 17 21 20 21 21 18 12 11 11 11 11 11 11 10 10 10 10 10 10 9 10 10 10 9 8 8 6 1 2 3 2 1 1 1 5 6 6 6 6 5 5
10 11 12 11 11 11 10 10 9 8 7 8 8 7 7 8 9 8 7 8 8 9 9 9 8 8 8 8 8 7 7 7 7 7 6 7 7 7 7 7 8 14 14 9 9 9 13 20 18 19 15 10 11 11 10 11 11 11 10 11 10 9 10 11 12 15 12 12 11 11 11 9 8 10 9 8 6 4 3 1 1 2 9 8 6 6 5
9 9 8 8 8 9 10 9 7 7 7 7 7 7 8 9 8 7 7 8 7 9 8 9 9 8 8 8 7 7 7 7 7 8 7 7 6 8 9 7 8 9 9 9 8 8 8 8 9 10 11 10 10 10 10 10 10 11 11 10 11 10 11 12 11 12 12 11 10 11 11 11 11 11 10 9 9 8 8 7 7 6 6 5 3 1 1
8 6 7 8 8 8 9 9 8 8 8 8 8 8 8 8 9 9 9 12 9 8 8 9 10 9 8 8 8 8 8 8 7 7 7 6 6 6 7 9 8 8 8 7 8 7 7 7 9 12 12 9 8 8 10 12 10 10 9 9 9 10 10 9 10 10 11 12 12 11 12 11 11 11 11 10 10 10 10 10 10 9 9 8 7 7 7
Wind_Direction
313 297 279 273 247 218 202 200 210 211 212 201 210 216 195 163 201 227 197 195 195 230 227 230 227 228 234 230 217 214 221 234 239 234 224 218 211 206 198 204 206 202 203 201 198 197 197 194 192 193 192 195 195 197 196 191 187 189 186 186 190 192 194 198 201 200 195 194 198 199 200 202 204 204 204 204 202 197 197 199 201 203 201 201 202 205 204
309 302 288 275 243 254 222 203 202 205 204 214 212 213 204 195 213 218 203 192 211 203 214 220 238 234 232 218 222 162 180 229 233 230 243 245 235 211 200 196 195 199 204 201 197 195 194 192 192 191 192 191 192 192 192 190 191 191 182 188 189 191 196 201 200 195 193 194 196 197 199 202 203 202 202 202 200 200 200 199 200 199 201 202 204 204 202
304 299 290 269 247 234 244 235 210 204 208 212 213 210 206 207 230 223 200 199 229 245 217 210 231 246 356 338 273 230 216 213 200 207 222 230 225 215 209 202 196 197 198 195 196 197 197 195 195 192 190 191 190 192 190 188 191 187 184 189 192 195 200 200 195 191 192 195 194 197 201 200 199 199 201 200 202 203 201 198 199 198 199 202 205 204 203
310 302 349 334 306 248 230 240 234 214 207 214 213 210 183 176 207 214 200 225 244 258 244 248 265 278 224 223 243 258 253 232 208 198 216 221 220 215 211 205 192 178 182 194 196 201 200 199 195 191 190 189 187 192 190 192 193 186 186 189 193 198 202 197 192 192 194 193 194 199 197 199 197 197 196 199 203 203 202 201 200 197 200 204 203 203 204
263 283 323 321 313 302 247 231 225 218 213 209 212 215 187 196 190 202 212 223 219 225 207 191 240 239 244 238 229 248 282 259 246 246 228 216 212 215 207 190 188 190 193 193 193 196 199 198 195 195 188 183 190 194 192 198 186 182 189 193 196 200 199 193 194 194 193 192 197 198 198 197 193 191 194 199 203 202 205 203 196 199 204 200 204 201 202
290 297 313 309 314 235 231 230 210 202 209 202 202 213 209 212 189 211 203 214 221 226 124 185 217 224 234 226 237 225 266 295 264 244 258 287 275 223 192 194 196 200 201 202 200 195 192 196 198 194 187 189 196 195 194 186 180 188 191 196 198 201 197 196 195 193 192 194 197 199 196 191 190 192 196 202 203 202 201 196 201 205 203 204 203 201 202
284 296 317 323 232 237 252 51 189 197 201 182 197 209 208 208 216 228 249 234 243 206 181 194 223 177 109 97 81 33 6 355 279 240 222 223 216 272 251 197 195 205 196 187 182 190 200 197 194 190 198 202 200 195 185 181 188 189 194 196 199 200 198 198 194 192 193 195 198 196 190 189 191 196 199 204 202 199 197 199 202 204 202 203 204 204 204
272 289 235 238 231 252 302 294 310 189 178 185 172 227 248 274 218 198 206 213 219 189 169 168 152 142 159 100 58 27 4 24 9 358 340 269 186 185 195 252 263 210 190 188 189 199 199 190 190 190 198 200 193 196 187 189 190 193 194 197 201 198 199 197 196 195 193 195 196 191 188 190 195 200 201 201 201 197 198 203 206 204 205 205 205 204 204
233 230 264 251 289 309 291 242 29 50 194 165 182 199 250 233 203 167 191 199 160 132 157 161 153 165 157 62 8 6 5 359 357 1 350 360 337 339 287 213 213 212 272 290 247 216 189 186 189 198 202 192 192 185 183 194 192 197 196 201 202 199 201 200 199 197 195 194 192 189 190 194 199 201 201 201 200 194 198 202 202 202 204 202 201 201 202
196 243 288 302 301 248 286 337 324 339 335 293 177 154 233 273 229 200 186 167 153 146 153 154 164 120 88 52 315 325 352 358 350 342 4 357 3 4 6 14 16 339 243 202 193 196 220 220 207 203 194 184 180 180 190 190 190 195 197 203 203 200 203 199 197 195 194 192 192 193 194 199 201 202 201 200 199 193 198 200 204 205 201 201 201 202 200
190 215 230 237 257 249 230 328 326 326 322 325 263 171 232 259 210 191 166 162 159 151 159 171 138 93 113 194 256 293 336 342 347 354 353 2 10 10 15 21 1 348 322 239 192 165 167 203 216 148 137 148 167 191 193 194 195 197 203 208 204 204 206 200 196 192 190 190 194 196 199 202 201 200 201 200 196 192 202 203 205 199 197 201 203 200 202
232 239 235 250 217 265 344 325 327 319 311 309 341 200 223 251 71 85 121 149 149 160 155 134 90 124 151 199 225 339 353 326 336 0 360 2 1 1 4 17 8 353 2 75 99 183 198 205 166 160 156 168 187 193 195 188 194 203 206 207 207 208 207 197 192 190 192 196 199 199 202 202 199 201 197 193 193 197 202 201 200 197 199 200 199 201 198
207 192 248 306 291 338 346 339 325 318 304 124 165 212 224 176 91 61 103 103 115 124 122 144 112 304 129 130 98 21 348 350 355 357 6 5 2 2 0 356 359 27 39 34 13 0 358 109 144 176 176 180 190 199 194 191 203 208 208 205 200 200 195 188 189 194 197 199 201 205 204 201 199 195 192 195 194 197 199 198 198 197 196 197 198 199 195
170 194 164 222 260 115 357 334 327 311 278 162 202 247 238 113 102 95 109 99 94 101 91 99 104 106 73 69 60 32 17 11 348 0 3 5 11 11 6 6 9 1 359 12 52 65 17 339 309 157 162 187 208 201 186 202 215 220 218 208 200 197 191 191 194 194 195 198 202 204 202 194 192 198 198 195 194 194 193 194 196 195 190 188 192 187 178
106 57 58 10 311 277 4 336 326 30 26 296 291 303 19 73 116 115 94 97 99 103 95 91 103 104 91 79 67 54 38 20 11 6 5 13 13 3 0 360 1 1 357 358 354 1 14 7 351 318 171 185 199 192 201 216 216 212 204 191 188 191 195 202 202 199 198 196 195 195 195 195 197 198 192 192 193 189 189 190 192 190 185 178 168 160 156
171 154 154 195 200 331 339 346 334 324 301 289 296 313 239 64 61 104 102 71 97 105 113 118 107 104 101 79 80 70 55 40 25 19 12 8 1 358 2 10 359 360 4 355 348 352 2 7 3 0 330 231 209 206 221 222 217 206 187 183 177 185 193 199 201 202 202 201 199 196 193 189 191 191 189 191 188 186 185 182 184 184 180 170 161 160 158
147 182 203 261 37 333 329 336 323 314 309 325 342 359 317 111 65 353 99 108 101 111 115 108 112 104 96 98 84 75 61 53 37 28 21 13 8 6 355 349 351 3 10 357 345 348 2 2 5 358 5 337 284 238 246 275 232 210 203 196 191 196 200 202 202 203 201 197 196 197 194 187 187 189 187 182 183 186 179 179 180 179 178 171 169 167 157
116 62 94 29 359 351 350 348 341 339 333 346 1 350 340 10 36 35 100 101 101 96 106 106 86 92 117 106 103 97 90 80 73 56 33 15 5 7 5 5 3 357 4 9 7 358 354 8 5 6 3 10 345 309 323 302 239 205 205 202 204 206 207 206 207 204 201 201 198 194 189 188 191 187 183 180 177 173 173 177 176 173 169 170 167 160 158
96 194 167 190 256 29 12 347 347 352 346 349 350 352 3 17 36 59 51 74 76 89 87 90 99 90 99 99 93 96 96 85 83 84 65 47 27 11 2 352 350 4 28 27 20 3 351 351 358 360 356 358 320 302 305 304 281 224 204 201 205 208 208 209 205 198 196 196 194 190 186 185 187 183 177 177 174 170 173 172 175 172 165 167 162 160 157
136 160 132 267 233 82 46 1 10 359 350 338 343 358 20 28 40 42 36 37 50 50 65 68 78 70 58 68 62 57 49 48 46 40 36 32 39 28 5 340 342 334 5 40 31 31 359 336 340 340 346 343 340 336 331 334 332 290 222 210 208 211 210 205 198 193 193 186 182 182 183 179 174 171 176 175 175 180 181 179 173 169 168 168 165 161 155
115 58 70 195 106 74 27 8 29 12 7 338 336 356 21 30 36 40 40 36 32 39 65 74 92 85 66 71 74 69 55 48 39 31 26 21 16 11 11 7 4 5 5 10 7 5 359 339 341 336 336 333 325 341 342 348 354 345 330 331 318 287 236 202 198 193 190 189 184 181 174 171 166 172 178 180 180 189 194 188 172 165 169 165 163 160 152
127 169 192 191 105 34 4 336 32 29 359 340 336 360 29 29 34 31 54 54 41 38 18 44 91 99 99 87 86 79 72 61 49 41 36 32 26 19 11 16 11 7 5 357 357 358 356 355 353 348 345 340 336 334 334 2 57 24 352 338 355 13 349 287 213 196 192 183 177 177 169 159 143 97 44 67 150 162 135 44 283 176 158 159 156 144 140
175 175 187 206 145 118 134 251 73 79 352 336 357 10 34 35 35 29 38 50 50 42 23 7 59 83 87 81 82 79 70 61 56 54 47 39 29 24 18 21 14 11 5 7 0 2 349 350 356 357 358 359 357 357 359 5 19 34 38 37 9 347 322 216 187 169 158 157 165 160 164 164 158 149 121 66 51 64 113 127 124 109 105 124 132 137 138
105 177 159 138 127 141 143 188 165 100 130 58 29 7 28 45 41 33 35 35 40 35 26 24 20 45 64 55 68 76 65 56 56 54 49 50 46 41 34 32 22 15 9 7 12 13 6 358 5 7 7 5 3 16 41 52 65 73 68 71 53 55 26 338 295 188 165 166 161 159 167 168 158 147 126 109 69 49 54 96 110 121 133 131 126 129 129
139 142 106 126 116 112 127 150 129 133 146 95 68 31 20 40 40 38 38 30 27 29 31 22 15 16 40 47 53 62 64 52 44 50 50 53 51 46 37 36 32 28 18 17 33 37 37 31 26 20 15 4 8 17 16 40 76 83 85 79 66 41 359 337 324 284 212 169 163 160 157 161 165 156 148 138 130 125 74 62 74 84 88 98 118 124 123
216 112 109 108 104 114 139 117 55 1 356 89 80 36 41 51 49 44 37 32 27 25 30 22 17 7 14 32 41 49 62 52 45 47 48 45 41 37 32 29 32 37 32 28 33 37 38 35 32 26 17 2 355 360 8 16 41 63 73 80 81 72 62 20 352 4 352 331 15 126 132 129 128 135 140 139 135 123 124 120 85 60 60 64 85 101 109
186 166 133 104 92 61 51 102 130 332 352 17 82 106 71 74 62 54 42 34 30 27 26 21 18 3 17 19 19 26 48 46 48 42 42 38 35 22 7 21 41 47 41 32 27 32 38 37 32 28 19 6 4 9 16 34 68 83 91 100 100 109 114 102 57 22 9 8 10 17 56 76 88 93 95 99 98 100 108 118 121 126 149 71 40 58 94
176 171 183 152 157 145 122 98 93 71 48 48 41 42 19 56 66 52 37 26 20 17 21 20 17 17 27 15 20 21 25 34 40 31 33 25 8 5 12 15 29 45 48 40 29 24 27 26 26 25 17 6 14 20 17 11 33 76 97 100 96 85 79 74 53 61 66 16 34 5 116 115 117 112 104 93 83 87 87 87 112 118 96 64 79 66 69
114 106 83 92 107 118 115 98 78 68 64 49 52 55 42 26 55 78 67 42 14 17 23 11 13 20 29 17 22 26 24 25 27 21 11 3 5 11 11 24 33 40 45 41 33 27 28 27 23 21 4 358 16 24 22 18 17 57 80 94 104 107 98 75 57 63 70 46 36 7 43 64 70 78 79 90 96 91 91 113 117 90 101 120 107 82 67
115 109 102 100 104 106 99 86 82 78 64 52 57 50 54 52 32 33 62 59 33 17 4 2 15 20 18 26 21 21 20 16 15 7 12 10 8 6 16 18 64 44 38 30 20 17 27 24 20 15 352 338 15 33 34 35 34 46 66 74 91 101 102 100 86 52 52 41 34 51 52 76 77 70 62 64 76 89 103 117 120 119 119 120 116 120 118
100 96 98 97 91 87 88 90 83 74 67 54 54 60 62 60 53 40 34 40 43 11 348 10 11 13 15 20 8 10 15 18 17 21 21 16 15 15 11 27 57 50 42 24 10 12 17 19 24 10 338 335 359 43 57 57 53 62 62 66 69 92 101 110 99 104 104 97 71 58 60 62 70 84 89 87 81 96 107 115 108 114 117 120 127 132 131
99 93 93 91 91 89 85 83 84 79 76 74 66 57 55 65 64 51 37 44 47 33 5 16 18 13 2 359 6 11 19 22 22 21 18 19 19 15 15 19 36 50 50 38 30 23 15 11 11 352 338 353 5 23 43 48 46 58 71 80 80 69 76 85 92 98 111 94 78 75 78 77 78 87 101 111 127 131 128 123 126 136 136 133 134 131 130
106 103 92 94 91 87 84 80 88 81 74 70 68 69 67 70 71 68 66 55 40 29 26 11 4 2 358 4 13 12 11 14 23 24 20 17 14 13 8 10 13 17 22 17 17 24 31 18 346 337 348 356 13 26 33 39 46 45 43 58 51 60 67 75 91 92 89 83 85 91 90 91 93 97 103 106 105 110 111 117 126 134 136 132 119 124 150
90 100 116 117 118 116 114 105 92 90 80 71 67 63 64 62 67 64 56 53 52 46 30 15 2 360 6 13 19 20 14 24 25 18 16 18 15 12 10 11 9 7 5 5 8 11 8 3 358 358 355 356 1 20 42 54 58 51 60 73 70 60 60 58 84 95 92 97 101 104 107 116 122 125 127 128 129 128 128 130 138 128 117 103 108 117 123
77 73 70 74 73 85 98 111 111 101 90 77 64 59 63 66 65 61 59 56 53 42 35 41 34 22 23 28 33 37 44 46 38 32 23 19 15 16 19 23 17 14 14 15 11 359 345 332 343 19 28 22 8 360 24 64 84 85 68 70 71 74 59 55 70 102 121 124 122 122 125 120 121 124 128 131 137 131 132 135 131 129 127 123 118 114 130
73 69 65 61 62 68 73 74 76 86 88 80 71 64 56 57 56 48 43 43 35 44 46 46 42 41 39 37 39 35 39 38 40 37 28 21 12 19 29 30 26 24 18 13 7 353 346 342 14 22 10 34 36 11 359 21 77 100 90 74 61 46 45 41 51 85 98 128 141 142 140 141 139 135 134 135 135 138 138 132 130 130 130 130 124 135 133
74 94 94 85 76 67 65 67 72 72 67 64 58 58 51 34 41 56 63 50 49 53 61 64 58 53 51 48 51 42 36 34 37 41 36 29 28 37 31 26 23 23 23 22 355 344 349 359 19 21 9 360 3 1 31 92 9 48 84 88 91 86 86 75 45 43 50 47 63 105 125 127 128 143 148 146 145 137 131 135 139 139 147 147 148 143 141
50 60 74 80 77 72 63 54 43 57 77 68 53 49 66 76 60 51 58 58 46 41 59 69 76 75 64 57 48 39 30 25 27 29 33 33 31 45 38 29 19 13 22 15 343 351 355 7 13 18 12 14 359 337 328 102 84 73 83 92 81 65 59 66 74 66 49 45 50 59 76 87 115 134 140 137 139 140 144 150 154 151 150 147 147 153 157
78 83 83 85 83 85 97 95 88 62 70 78 83 73 37 64 90 79 66 59 61 66 67 71 69 66 54 57 52 42 33 21 22 26 26 25 32 49 48 33 24 14 15 356 357 358 1 11 11 11 12 13 14 19 37 48 46 41 49 66 77 77 79 88 100 119 130 128 112 91 93 103 97 93 122 136 132 120 130 151 153 149 140 147 147 152 155
83 77 78 81 88 89 85 83 84 75 67 63 68 84 85 63 65 66 65 68 55 58 68 74 73 70 61 56 50 45 29 29 25 28 28 30 41 48 47 38 22 5 9 16 11 3 8 13 14 9 8 13 22 18 28 64 68 54 55 59 72 94 115 118 99 74 58 63 80 82 87 113 141 143 135 117 111 125 120 116 141 146 142 142 142 143 148
48 51 50 62 65 66 70 73 74 79 85 83 75 73 64 67 66 65 64 65 54 57 68 70 73 65 56 54 54 47 38 37 34 32 26 39 41 38 43 36 2 357 6 17 20 19 19 16 9 16 10 13 12 38 32 33 37 39 46 57 69 70 59 46 58 86 108 100 96 130 151 141 114 130 131 134 142 141 139 150 167 166 147 147 142 144 147
59 59 60 59 59 60 60 58 59 56 49 49 54 59 59 61 66 71 65 60 57 50 51 54 65 67 61 53 50 46 40 32 35 39 44 49 44 42 46 31 1 10 27 26 20 22 18 17 12 14 17 22 18 51 55 41 38 43 47 48 54 58 61 40 38 21 24 53 45 28 53 136 173 152 128 152 154 164 148 148 143 145 142 142 146 152 151
49 51 52 53 54 55 58 60 60 63 61 56 62 67 67 67 69 66 62 59 58 57 54 49 46 48 51 53 54 49 38 28 31 36 49 49 49 49 55 34 15 26 33 26 25 23 19 11 18 18 26 31 33 33 32 31 46 59 59 56 62 58 50 43 39 41 54 78 129 134 103 65 21 90 158 166 138 118 105 127 138 150 150 146 144 140 146
52 50 49 51 51 52 56 60 62 61 61 53 51 57 58 55 55 66 68 63 56 53 55 51 49 51 52 56 56 50 39 32 26 20 45 48 44 35 31 37 29 34 37 35 29 26 21 15 17 24 25 28 31 30 25 20 24 37 64 78 81 76 71 59 57 48 43 51 49 70 82 85 110 115 73 118 133 140 144 145 144 136 109 99 113 121 124
49 51 54 54 52 51 51 56 63 70 73 69 60 53 55 59 55 52 60 61 59 52 49 47 47 44 47 51 56 57 57 48 40 31 40 39 42 32 18 32 36 34 37 38 33 29 24 24 23 26 27 30 33 34 30 24 23 27 28 24 26 42 76 97 95 82 62 48 49 39 56 88 97 100 97 58 12 10 78 142 148 140 137 146 143 141 147
47 44 46 49 46 46 49 56 56 59 61 63 60 52 51 60 61 57 54 59 58 54 53 54 52 44 41 47 52 55 56 51 41 35 38 39 45 30 30 41 39 40 40 40 34 30 24 29 30 29 29 33 36 34 29 30 34 31 27 21 14 14 16 16 28 57 96 105 78 38 344 3 84 94 83 122 148 141 166 231 216 151 141 149 157 159 159
48 43 40 44 45 42 46 47 49 50 47 48 48 45 44 60 63 63 60 60 58 53 50 50 49 44 41 43 42 41 47 53 43 28 25 26 33 39 39 40 39 39 40 39 37 33 30 31 31 33 34 34 34 31 28 31 32 32 31 28 22 15 10 10 8 354 354 10 34 141 180 236 315 38 101 127 158 175 177 180 182 160 140 131 138 147 151
48 46 41 41 44 42 46 45 45 43 40 38 39 41 43 60 68 69 66 64 60 57 53 48 45 41 40 40 40 40 29 51 62 29 10 23 31 35 36 40 44 45 42 35 34 32 33 35 36 35 35 36 33 28 28 27 29 31 32 29 26 22 20 18 12 8 9 10 4 4 6 90 131 214 175 200 208 194 184 172 156 148 152 160 163 163 160
46 50 47 46 44 42 44 45 44 41 33 29 38 33 33 56 58 56 57 60 59 57 52 46 42 39 37 39 43 39 40 42 64 63 17 31 36 35 32 38 43 44 42 41 34 25 31 33 36 39 40 39 34 33 30 28 30 33 32 31 29 27 25 24 20 20 23 24 15 11 13 23 10 360 111 115 98 10 332 190 155 154 154 156 151 151 153
49 51 48 47 45 43 42 49 47 42 41 46 46 40 44 53 55 42 38 52 64 65 57 47 39 32 32 33 31 34 34 47 47 44 37 36 36 37 31 33 39 45 45 43 38 33 30 36 37 40 43 42 41 40 36 36 33 32 30 29 30 33 30 31 33 31 28 25 22 22 22 18 18 24 20 11 16 36 36 16 32 125 142 145 151 152 152
51 54 52 53 56 54 52 53 49 46 46 46 49 49 53 57 60 52 46 44 49 56 58 54 44 34 30 27 28 29 32 32 39 46 44 33 29 37 41 37 36 40 40 40 34 32 32 37 42 40 41 43 44 43 43 42 41 38 36 34 31 28 29 32 34 34 31 28 28 27 22 20 24 24 22 17 20 18 16 15 27 12 5 18 32 65 143
54 55 58 56 56 54 52 45 42 46 45 45 46 50 53 58 60 54 48 43 45 45 47 52 43 23 23 26 29 23 19 26 29 26 30 32 35 25 27 36 35 32 34 34 34 29 29 28 39 48 50 47 46 47 47 49 49 47 43 40 40 39 35 34 39 41 36 32 33 30 31 31 29 26 22 21 26 27 24 23 21 20 19 17 18 23 28